Location: Recife
(8.0585°S, 34.8848°W)
Time: 12:42:24
(UTC-03:00)

Transit 4A - Pass Details

Date: 18 April 2026
Orbit: 861 x 980 km, 66.8° (Epoch: 12 May)

Event Time Altitude Azimuth Distance (km) Brightness Sun altitude
Rises 10:20:41 0° 168° (SSE) 3,443 10.7 66.1°
Reaches altitude 10° 10:24:33 10° 143° (SE) 2,509 10.2 66.7°
Maximum altitude 10:27:21 14° 113° (ESE) 2,259 10.2 67.1°
Drops below altitude 10° 10:30:09 10° 84° (E) 2,523 10.5 67.4°
Sets 10:34:01 0° 59° (ENE) 3,477 11.2 68.0°
